Time,TemperatureF,DewpointF,PressureIn,WindDirection,WindDirectionDegrees,WindSpeedMPH,WindSpeedGustMPH,Humidity,HourlyPrecipIn,Conditions,Clouds,dailyrainin,SolarRadiationWatts/m^2,SoftwareType,DateUTC
2013-09-24 00:11:00,76.7,45.0,30.10,SSE,154,0.0,-999.0,33,-99.99,,,0.00,0,weatherlink.com 1.10,2013-09-24 07:11:00,
2013-09-24 00:26:00,77.3,46.0,30.10,SSE,156,0.0,-999.0,33,-99.99,,,0.00,0,weatherlink.com 1.10,2013-09-24 07:26:00,
2013-09-24 00:41:00,76.7,44.0,30.10,SSE,157,0.0,-999.0,31,-99.99,,,0.00,0,weatherlink.com 1.10,2013-09-24 07:41:00,
2013-09-24 00:56:00,76.0,45.0,30.10,SSE,157,0.0,-999.0,33,-99.99,,,0.00,0,weatherlink.com 1.10,2013-09-24 07:56:00,
2013-09-24 01:11:00,75.4,44.0,30.10,SSE,162,1.0,-999.0,33,-99.99,,,0.00,0,weatherlink.com 1.10,2013-09-24 08:11:00,
2013-09-24 01:26:00,76.0,44.0,30.10,South,187,1.0,-999.0,32,-99.99,,,0.00,0,weatherlink.com 1.10,2013-09-24 08:26:00,
2013-09-24 01:41:00,76.4,44.0,30.10,SSW,200,0.0,-999.0,32,-99.99,,,0.00,0,weatherlink.com 1.10,2013-09-24 08:41:00,
2013-09-24 01:56:00,76.0,44.0,30.10,SSW,202,0.0,-999.0,32,-99.99,,,0.00,0,weatherlink.com 1.10,2013-09-24 08:56:00,
2013-09-24 02:11:00,75.3,45.0,30.10,SSW,202,0.0,-999.0,34,-99.99,,,0.00,0,weatherlink.com 1.10,2013-09-24 09:11:00,
2013-09-24 02:26:00,75.3,43.0,30.10,SSW,202,0.0,-999.0,32,-99.99,,,0.00,0,weatherlink.com 1.10,2013-09-24 09:26:00,
2013-09-24 02:41:00,74.5,45.0,30.10,SSW,202,0.0,-999.0,35,-99.99,,,0.00,0,weatherlink.com 1.10,2013-09-24 09:41:00,
2013-09-24 02:56:00,73.7,44.0,30.10,SSW,202,0.0,-999.0,34,-99.99,,,0.00,0,weatherlink.com 1.10,2013-09-24 09:56:00,
2013-09-24 03:11:00,74.1,43.0,30.09,SSW,202,0.0,-999.0,33,-99.99,,,0.00,0,weatherlink.com 1.10,2013-09-24 10:11:00,
2013-09-24 03:26:00,73.0,45.0,30.10,SSW,202,0.0,-999.0,37,-99.99,,,0.00,0,weatherlink.com 1.10,2013-09-24 10:26:00,
2013-09-24 03:42:00,71.7,45.0,30.09,SSW,202,0.0,-999.0,38,-99.99,,,0.00,0,weatherlink.com 1.10,2013-09-24 10:42:00,
2013-09-24 03:57:00,71.0,44.0,30.09,SSW,202,0.0,-999.0,38,-99.99,,,0.00,0,weatherlink.com 1.10,2013-09-24 10:57:00,
2013-09-24 04:12:00,71.1,43.0,30.10,SSW,202,0.0,-999.0,36,-99.99,,,0.00,0,weatherlink.com 1.10,2013-09-24 11:12:00,
2013-09-24 04:27:00,71.4,44.0,30.10,SSW,202,0.0,-999.0,37,-99.99,,,0.00,0,weatherlink.com 1.10,2013-09-24 11:27:00,
2013-09-24 04:42:00,71.7,42.0,30.10,SSW,202,0.0,-999.0,34,-99.99,,,0.00,0,weatherlink.com 1.10,2013-09-24 11:42:00,
2013-09-24 04:57:00,72.0,44.0,30.10,SSW,202,0.0,-999.0,36,-99.99,,,0.00,0,weatherlink.com 1.10,2013-09-24 11:57:00,
2013-09-24 05:12:00,72.2,41.0,30.10,SSW,202,3.0,-999.0,32,-99.99,,,0.00,0,weatherlink.com 1.10,2013-09-24 12:12:00,
2013-09-24 05:27:00,72.9,41.0,30.10,SSW,202,2.0,-999.0,32,-99.99,,,0.00,0,weatherlink.com 1.10,2013-09-24 12:27:00,
2013-09-24 05:42:00,73.2,41.0,30.10,SSW,203,1.0,-999.0,31,-99.99,,,0.00,0,weatherlink.com 1.10,2013-09-24 12:42:00,
2013-09-24 05:57:00,72.6,43.0,30.10,SSW,203,0.0,-999.0,34,-99.99,,,0.00,0,weatherlink.com 1.10,2013-09-24 12:57:00,
2013-09-24 06:12:00,71.3,44.0,30.11,SSW,203,0.0,-999.0,37,-99.99,,,0.00,0,weatherlink.com 1.10,2013-09-24 13:12:00,
2013-09-24 06:27:00,71.0,43.0,30.11,SSW,204,0.0,-999.0,37,-99.99,,,0.00,0,weatherlink.com 1.10,2013-09-24 13:27:00,
2013-09-24 06:42:00,70.9,43.0,30.11,SSW,203,0.0,-999.0,36,-99.99,,,0.00,7,weatherlink.com 1.10,2013-09-24 13:42:00,
2013-09-24 06:57:00,72.1,41.0,30.11,SSW,206,5.0,-999.0,33,-99.99,,,0.00,25,weatherlink.com 1.10,2013-09-24 13:57:00,
2013-09-24 07:12:00,73.9,41.0,30.12,SSW,207,3.0,-999.0,31,-99.99,,,0.00,60,weatherlink.com 1.10,2013-09-24 14:12:00,
2013-09-24 07:27:00,74.1,44.0,30.12,SSW,208,0.0,-999.0,34,-99.99,,,0.00,30,weatherlink.com 1.10,2013-09-24 14:27:00,
2013-09-24 07:42:00,75.3,43.0,30.13,SSW,209,0.0,-999.0,32,-99.99,,,0.00,167,weatherlink.com 1.10,2013-09-24 14:42:00,
2013-09-24 07:57:00,76.6,45.0,30.12,SW,217,0.0,-999.0,32,-99.99,,,0.00,221,weatherlink.com 1.10,2013-09-24 14:57:00,
2013-09-24 08:12:00,77.8,46.0,30.13,SW,224,0.0,-999.0,32,-99.99,,,0.00,272,weatherlink.com 1.10,2013-09-24 15:12:00,
2013-09-24 08:27:00,78.4,48.0,30.14,SW,224,0.0,-999.0,34,-99.99,,,0.00,322,weatherlink.com 1.10,2013-09-24 15:27:00,
2013-09-24 08:42:00,79.2,50.0,30.14,SW,224,0.0,-999.0,36,-99.99,,,0.00,366,weatherlink.com 1.10,2013-09-24 15:42:00,
2013-09-24 08:57:00,80.2,52.0,30.14,SW,224,0.0,-999.0,37,-99.99,,,0.00,415,weatherlink.com 1.10,2013-09-24 15:57:00,
2013-09-24 09:12:00,81.3,50.0,30.14,SW,224,0.0,-999.0,33,-99.99,,,0.00,457,weatherlink.com 1.10,2013-09-24 16:12:00,
2013-09-24 09:28:00,82.9,48.0,30.14,SW,223,0.0,-999.0,30,-99.99,,,0.00,501,weatherlink.com 1.10,2013-09-24 16:28:00,
2013-09-24 09:43:00,84.8,48.0,30.14,SW,223,0.0,-999.0,28,-99.99,,,0.00,545,weatherlink.com 1.10,2013-09-24 16:43:00,
2013-09-24 09:58:00,86.8,48.0,30.14,SW,224,0.0,-999.0,26,-99.99,,,0.00,582,weatherlink.com 1.10,2013-09-24 16:58:00,
2013-09-24 10:28:00,91.2,47.0,30.13,SW,224,0.0,-999.0,22,-99.99,,,0.00,650,weatherlink.com 1.10,2013-09-24 17:28:00,
2013-09-24 10:43:00,92.1,47.0,30.13,SW,223,0.0,-999.0,21,-99.99,,,0.00,679,weatherlink.com 1.10,2013-09-24 17:43:00,
2013-09-24 10:58:00,93.0,46.0,30.13,SW,224,0.0,-999.0,20,-99.99,,,0.00,703,weatherlink.com 1.10,2013-09-24 17:58:00,
2013-09-24 11:13:00,93.6,46.0,30.12,SW,224,0.0,-999.0,19,-99.99,,,0.00,722,weatherlink.com 1.10,2013-09-24 18:13:00,
2013-09-24 11:28:00,92.7,46.0,30.11,SW,218,4.0,-999.0,20,-99.99,,,0.00,740,weatherlink.com 1.10,2013-09-24 18:28:00,
2013-09-24 11:43:00,92.8,46.0,30.11,SSW,210,4.0,-999.0,20,-99.99,,,0.00,752,weatherlink.com 1.10,2013-09-24 18:43:00,
2013-09-24 12:13:00,93.4,49.0,30.10,SSW,194,3.0,-999.0,22,-99.99,,,0.00,768,weatherlink.com 1.10,2013-09-24 19:13:00,
2013-09-24 12:28:00,94.2,50.0,30.09,South,180,0.0,-999.0,22,-99.99,,,0.00,770,weatherlink.com 1.10,2013-09-24 19:28:00,
2013-09-24 12:43:00,94.1,51.0,30.09,SSE,161,0.0,-999.0,23,-99.99,,,0.00,766,weatherlink.com 1.10,2013-09-24 19:43:00,
2013-09-24 12:58:00,94.2,52.0,30.08,SSE,160,0.0,-999.0,24,-99.99,,,0.00,763,weatherlink.com 1.10,2013-09-24 19:58:00,
2013-09-24 13:13:00,94.6,51.0,30.07,SE,146,2.0,-999.0,23,-99.99,,,0.00,752,weatherlink.com 1.10,2013-09-24 20:13:00,
2013-09-24 13:28:00,94.7,50.0,30.07,SE,142,4.0,-999.0,22,-99.99,,,0.00,740,weatherlink.com 1.10,2013-09-24 20:28:00,
2013-09-24 13:43:00,95.4,48.0,30.06,SSE,155,5.0,-999.0,20,-99.99,,,0.00,724,weatherlink.com 1.10,2013-09-24 20:43:00,
2013-09-24 13:58:00,94.5,49.0,30.05,South,169,6.0,-999.0,21,-99.99,,,0.00,703,weatherlink.com 1.10,2013-09-24 20:58:00,
2013-09-24 14:13:00,95.1,49.0,30.04,SSE,165,7.0,-999.0,21,-99.99,,,0.00,679,weatherlink.com 1.10,2013-09-24 21:13:00,
2013-09-24 14:28:00,95.1,48.0,30.03,SSE,157,7.0,-999.0,20,-99.99,,,0.00,652,weatherlink.com 1.10,2013-09-24 21:28:00,
2013-09-24 14:43:00,95.6,49.0,30.03,South,177,11.0,-999.0,20,-99.99,,,0.00,622,weatherlink.com 1.10,2013-09-24 21:43:00,
2013-09-24 14:59:00,95.9,49.0,30.02,SSE,165,1.0,-999.0,20,-99.99,,,0.00,589,weatherlink.com 1.10,2013-09-24 21:59:00,
2013-09-24 15:14:00,95.6,49.0,30.02,South,169,5.0,-999.0,20,-99.99,,,0.00,555,weatherlink.com 1.10,2013-09-24 22:14:00,
2013-09-24 15:29:00,95.5,47.0,30.01,SSE,165,5.0,-999.0,19,-99.99,,,0.00,519,weatherlink.com 1.10,2013-09-24 22:29:00,
2013-09-24 15:44:00,95.7,49.0,30.00,SSE,161,6.0,-999.0,20,-99.99,,,0.00,480,weatherlink.com 1.10,2013-09-24 22:44:00,
2013-09-24 15:59:00,95.5,47.0,30.00,SSE,158,5.0,-999.0,19,-99.99,,,0.00,436,weatherlink.com 1.10,2013-09-24 22:59:00,
2013-09-24 16:14:00,95.5,47.0,29.99,South,169,6.0,-999.0,19,-99.99,,,0.00,390,weatherlink.com 1.10,2013-09-24 23:14:00,
2013-09-24 16:29:00,95.4,47.0,29.99,South,172,7.0,-999.0,19,-99.99,,,0.00,345,weatherlink.com 1.10,2013-09-24 23:29:00,
2013-09-24 16:44:00,95.1,47.0,29.98,SSE,167,7.0,-999.0,19,-99.99,,,0.00,299,weatherlink.com 1.10,2013-09-24 23:44:00,
2013-09-24 16:59:00,94.8,47.0,29.98,South,173,4.0,-999.0,19,-99.99,,,0.00,255,weatherlink.com 1.10,2013-09-24 23:59:00,
2013-09-24 17:14:00,94.7,48.0,29.98,SSE,163,5.0,-999.0,20,-99.99,,,0.00,204,weatherlink.com 1.10,2013-09-25 00:14:00,
2013-09-24 17:29:00,94.3,48.0,29.98,SSE,161,0.0,-999.0,20,-99.99,,,0.00,153,weatherlink.com 1.10,2013-09-25 00:29:00,
2013-09-24 17:44:00,93.8,47.0,29.98,SSE,161,1.0,-999.0,20,-99.99,,,0.00,104,weatherlink.com 1.10,2013-09-25 00:44:00,
2013-09-24 17:59:00,93.1,47.0,29.98,SSE,161,0.0,-999.0,20,-99.99,,,0.00,56,weatherlink.com 1.10,2013-09-25 00:59:00,
2013-09-24 18:14:00,92.1,46.0,29.98,SSE,161,0.0,-999.0,20,-99.99,,,0.00,21,weatherlink.com 1.10,2013-09-25 01:14:00,
2013-09-24 18:29:00,91.1,46.0,29.98,SSE,161,1.0,-999.0,21,-99.99,,,0.00,9,weatherlink.com 1.10,2013-09-25 01:29:00,
2013-09-24 18:44:00,89.9,45.0,29.98,SSE,161,0.0,-999.0,21,-99.99,,,0.00,0,weatherlink.com 1.10,2013-09-25 01:44:00,
2013-09-24 18:59:00,89.1,46.0,29.98,SSE,161,0.0,-999.0,22,-99.99,,,0.00,0,weatherlink.com 1.10,2013-09-25 01:59:00,
2013-09-24 19:14:00,88.4,45.0,29.98,SSE,161,0.0,-999.0,22,-99.99,,,0.00,0,weatherlink.com 1.10,2013-09-25 02:14:00,
2013-09-24 19:29:00,87.0,46.0,29.98,SSE,161,0.0,-999.0,24,-99.99,,,0.00,0,weatherlink.com 1.10,2013-09-25 02:29:00,
2013-09-24 19:44:00,86.6,45.0,29.98,SSE,161,0.0,-999.0,23,-99.99,,,0.00,0,weatherlink.com 1.10,2013-09-25 02:44:00,
2013-09-24 19:59:00,86.8,46.0,29.99,SSE,161,0.0,-999.0,24,-99.99,,,0.00,0,weatherlink.com 1.10,2013-09-25 02:59:00,
2013-09-24 20:14:00,85.7,48.0,29.99,SSE,161,0.0,-999.0,27,-99.99,,,0.00,0,weatherlink.com 1.10,2013-09-25 03:14:00,
2013-09-24 20:29:00,84.4,48.0,30.00,SSE,161,0.0,-999.0,28,-99.99,,,0.00,0,weatherlink.com 1.10,2013-09-25 03:29:00,
2013-09-24 20:44:00,83.0,47.0,30.00,SSE,161,0.0,-999.0,28,-99.99,,,0.00,0,weatherlink.com 1.10,2013-09-25 03:44:00,
2013-09-24 20:59:00,83.1,47.0,30.00,SSE,161,0.0,-999.0,28,-99.99,,,0.00,0,weatherlink.com 1.10,2013-09-25 03:59:00,
2013-09-24 21:14:00,82.0,45.0,30.01,SSE,161,0.0,-999.0,27,-99.99,,,0.00,0,weatherlink.com 1.10,2013-09-25 04:14:00,
2013-09-24 21:29:00,82.1,45.0,30.01,SSE,161,0.0,-999.0,27,-99.99,,,0.00,0,weatherlink.com 1.10,2013-09-25 04:29:00,
2013-09-24 21:59:00,83.7,42.0,30.01,NNE,22,3.0,-999.0,23,-99.99,,,0.00,0,weatherlink.com 1.10,2013-09-25 04:59:00,
2013-09-24 22:14:00,83.2,41.0,30.01,NNE,15,2.0,-999.0,22,-99.99,,,0.00,0,weatherlink.com 1.10,2013-09-25 05:14:00,
2013-09-24 22:29:00,83.6,40.0,30.01,North,350,0.0,-999.0,21,-99.99,,,0.00,0,weatherlink.com 1.10,2013-09-25 05:29:00,
2013-09-24 22:44:00,83.4,38.0,30.01,NNW,348,2.0,-999.0,20,-99.99,,,0.00,0,weatherlink.com 1.10,2013-09-25 05:44:00,
2013-09-24 22:59:00,82.7,38.0,30.00,NNW,348,0.0,-999.0,20,-99.99,,,0.00,0,weatherlink.com 1.10,2013-09-25 05:59:00,
2013-09-24 23:14:00,81.8,38.0,30.00,NNW,348,0.0,-999.0,21,-99.99,,,0.00,0,weatherlink.com 1.10,2013-09-25 06:14:00,
2013-09-24 23:29:00,80.9,39.0,30.00,NNW,348,0.0,-999.0,22,-99.99,,,0.00,0,weatherlink.com 1.10,2013-09-25 06:29:00,
2013-09-24 23:44:00,79.6,38.0,29.99,NNW,348,0.0,-999.0,22,-99.99,,,0.00,0,weatherlink.com 1.10,2013-09-25 06:44:00,
2013-09-24 23:59:00,79.0,39.0,29.99,NNW,348,0.0,-999.0,24,-99.99,,,0.00,0,weatherlink.com 1.10,2013-09-25 06:59:00,